www.pogodaiklimat.ru

Погода и климат >> Архив погоды >> Коста-Рика >> Сан-Хосе


АРХИВ ПОГОДЫ в Сан-Хосе

Время (UTC), дата Ветер
(напр.,м/с)
 
Видим.   Явления Облачность Т
(С)
Тd
(С)
f
(%)
Тe
(С)
Тes
(С)
Комфортность P
(гПа)
Po
(гПа)
Тmin
(С)
Tmax
(С)
R
(мм)
R24
(мм)
S
(см)
21 18.08 20 км 9/8 750 м
[Sc]
+25.4 +21.6 80 1009.0 911.1
00 19.08 З 7 3000 м гроза, ливневой дождь 10/10 150 м
[Frnb]
+21.7 +21.4 98 +28 +28 душно 1010.5 911.9 +19.1 +27.3 1
03 19.08 С 4 8000 м слаб. ливневой дождь, в посл. час гроза 10/10 60 м
[Frnb]
+20.2 +19.9 98 +24 +24 комфорт 1013.4 914.7
06 19.08 СВ 7 20 км слаб. дождь {гроза} 10/1 900 м
[Sc As op]
+20.4 +18.7 90 +24 +24 комфорт 1010.0 911.8 +19.8 +27.3 56
09 19.08 С 4 16 км дымка {дождь} 10/5 30 м
[St As op]
+18.6 +18.3 98 +20 +20 по сезону 1010.9 912.4
12 19.08 В 4 20 км {туман, дождь} 9/0
[Ac und]
+19.2 +18.4 95 +21 +21 комфорт 1011.3 912.3 +18.1 +27.3 0.2
15 19.08 ЮЗ 5 20 км 9/1 1350 м
[Sc Ac trans]
+23.1 +19.6 81 +30 +33 очень
душно
1012.7 913.9
18 19.08 ЮЗ 4 20 км 9/3 1200 м
[Cu med, cong Cs]
+26.4 +19.4 65 +32 +40 очень
душно
1009.8 911.9 +18.1 +27.3
21 19.08 ЮЗ 9 15 км гроза, ливневой дождь 10/10 300 м
[Frnb]
+20.1 +18.6 91 +23 +23 комфорт 1010.7 911.4
00 20.08 штиль 0 8000 м слаб. ливневой дождь, в посл. час гроза 10/5 150 м
[Frnb Ac As]
+19.6 +19.3 98 +22 +22 комфорт 1012.6 913.1 +18.1 +28.4 8
03 20.08 В 5 20 км 9/0
[Cs]
+19.8 +19.5 98 +23 +23 комфорт 1011.2 912.5
06 20.08 Ю 4 20 км зарница 1/1 900 м
[Cb cap]
+19.3 +18.8 97 +21 +21 комфорт 1011.5 913.2 +19.1 +19.6
09 20.08 СВ 5 20 км ясно +19.8 +18.3 91 +22 +22 комфорт 1010.9 911.8
12 20.08 СВ 5 20 км ясно +18.2 +17.2 94 +18 +18 по сезону 1012.6 913.0 +17.4 +20.5
15 20.08 З 4 20 км 6/0
[Cs]
+24.0 +19.3 75 +29 +37 душно 1013.0 914.3
18 20.08 З 7 20 км слаб. дождь 9/4 600 м
[Cu med, cong Cs]
+24.4 +21.1 82 +31 +34 очень
душно
1011.9 913.3 +17.4 +28.4
21 20.08 ЮЗ 11 20 км 8/8 450 м
[Cu med, cong]
+24.5 +21.5 83 +31 +31 очень
душно
1010.0 911.7
00 21.08 З 4 10 км слаб. дождь 10/4 450 м
[Sc Ac As]
+21.0 +20.7 98 +26 +26 душно 1008.0 909.0 +17.4 +26.5 8
03 21.08 нст 2 20 км 10/4 750 м
[Sc Ac As]
+20.9 +20.4 97 +27 +27 душно 1013.6 915.0
06 21.08 СВ 5 20 км ясно +20.6 +19.4 93 +25 +25 комфорт 1011.6 903.5 +20.5 +26.5 7
09 21.08 СВ 4 20 км ясно +20.5 +18.3 87 +24 +24 комфорт 1011.9 912.8
12 21.08 СВ 6 20 км 10/0
[Ac As Cs]
+22.0 +18.1 79 +27 +27 душно 1011.5 912.8 +19.7 +26.5
15 21.08 В 7 20 км слаб. дождь 9/0
[Ac As]
+22.7 +19.3 81 +29 +30 очень
душно
1013.4 914.4
18 21.08 З 7 20 км 6/0
[Cs]
+25.7 +21.2 76 +32 +38 очень
душно
1011.5 913.3 +17.4 +26.5
21 21.08 З 10 20 км осадки на расстоянии 8/1 600 м
[Cu Sc Ac und]
+25.9 +20.8 73 +32 +33 очень
душно
1009.9 911.9
00 22.08 В 6 16 км слаб. дождь {гроза} 9/3 270 м
[St Ac und]
+22.0 +21.3 96 +29 +29 очень
душно
1011.7 913.1 +19.7 +27.5 6
03 22.08 СВ 3 18 км {туман, дождь} 5/1 150 м
[St]
+21.2 +20.9 98 +27 +27 душно 1013.0 914.3
06 22.08 В 4 20 км местами туман поземный 8/1 150 м
[Frnb As trans]
+19.8 +19.0 95 +23 +23 комфорт 1012.1 913.7 +19.7 +27.5
09 22.08 В 5 20 км 8/1 150 м
[Frnb Cs]
+18.7 +18.4 98 +20 +20 по сезону 1012.0 913.5
12 22.08 СВ 9 20 км 9/0
[Ac inh]
+20.3 +18.1 87 +23 +23 комфорт 1013.3 914.3 +18.2 +27.5
15 22.08 В 9 20 км 9/1 1200 м
[Sc Cs]
+25.3 +18.6 66 +30 +31 душно 1012.9 914.6
18 22.08 В 11 20 км 9/1 1200 м
[Cu Sc Ac und Ci fib]
+27.7 +17.4 53 +32 +32 очень
душно
1011.4 913.4 +18.2 +29.4
21 22.08 В 7 20 км 10/3 1350 м
[Sc Ci ing]
+27.4 +19.4 62 +33 +34 очень
душно
1010.0 911.9
00 23.08 В 8 20 км 1/1 1350 м
[Sc]
+23.9 +18.4 71 +28 +28 душно 1010.7 912.3 +18.2 +29.4
03 23.08 В 7 20 км 3/3 1350 м
[Sc]
1011.7 913.8
06 23.08 С 4 20 км 1/1 300 м
[St]
+20.2 +19.7 97 +24 +24 комфорт 1011.9 913.9 +19.5 +29.4
09 23.08 штиль 0 50 км ?/? +19.6 +17.6 88 +22 +22 комфорт 1011.4 913.3
12 23.08 В 9 20 км ясно +21.2 +17.4 79 +25 +25 комфорт 1012.0 913.6 +18.2 +29.4
15 23.08 В 14 20 км 1/1 1350 м
[Sc]
+26.6 +17.3 57 +31 +31 душно 1012.2 914.4
18 23.08 В 9 20 км 3/3 1350 м
[Sc]
+29.6 +16.7 46 +33 +35 душно 1010.3 912.8 +18.7 +30.6
21 23.08 З 10 20 км 5/5 1200 м
[Sc]
+26.3 +21.4 74 +33 +34 очень
душно
1009.7 911.6
00 24.08 ЮЗ 5 8000 м туман на расстоянии 10/10 30 м
[Frnb]
+23.4 +22.6 95 +32 +32 очень
душно
1010.8 912.4 +18.7 +31.0
03 24.08 нст 2 20 км ясно +21.6 +18.8 84 +26 +26 душно 1010.9 913.1
06 24.08 В 7 20 км {туман} 3/1 1200 м
[St]
+22.3 +17.5 74 +27 +27 душно 1010.4 913.2 +18.7 +31.0
09 24.08 В 7 20 км ясно +21.5 +16.3 72 +25 +25 комфорт 1010.8 912.9
12 24.08 СВ 9 20 км 4/0
[Ci fib]
+21.1 +15.7 71 +24 +24 комфорт 1011.6 913.1 +19.4 +31.0
15 24.08 В 10 20 км 8/1 1200 м
[Sc Ci fib]
+26.2 +17.2 58 +30 +31 душно 1011.7 913.7
18 24.08 В 10 20 км 6/3 1500 м
[Sc Ci fib]
+29.1 +15.8 45 +32 +33 душно 1009.6 912.4 +19.4 +31.0
21 24.08 З 13 20 км 9/9 1050 м
[Cu Sc]
+27.2 +22.0 73 +35 +35 очень
душно
1008.6 911.1
00 25.08 СВ 3 20 км в посл. час гроза 5/5 300 м
[Cb calv]
+21.5 +18.7 84 +26 +26 душно 1011.2 912.5 +19.4 +31.5 14
03 25.08 СВ 7 20 км 10/0
[As trans]
+22.0 +18.5 81 +27 +27 душно 1011.7 913.8
06 25.08 СВ 6 20 км ясно +20.7 +17.2 80 +24 +24 комфорт 1010.3 912.8 +20.0 +20.5
09 25.08 В 12 20 км ясно +22.6 +17.4 72 +27 +27 душно 1007.9 910.6
12 25.08 В 6 20 км ясно +21.2 +17.3 78 +25 +25 комфорт 1010.5 911.9 +19.6 +22.9
15 25.08 В 9 20 км 4/0
[Ac inh Cs]
+25.2 +18.0 64 +30 +31 душно 1011.3 913.3
18 25.08 нст 5 20 км слаб. дождь 6/6 600 м
[Cu Sc As trans]
+28.3 +20.5 63 +35 +40 очень
душно
1009.7 912.1 +19.4 +31.5

 

Местоположение метеостанции Сан-Хосе (Коста-Рика): широта 9.98 долгота -84.21 высота над уровнем моря 934 м.

В архиве по умолчанию представлена погода в Сан-Хосе за последнюю неделю. Архивные данные за месяц целиком и за предыдущие месяцы, начиная с января 2011 года, Вы можете получить, выбрав интересующий диапазон дат из раскрывающегося списка и нажав кнопку "Ввод!".


*Определитесь, кто Вы:
робот инопланетянин человек

Внимание! Время в таблицах - всемирное. Для получения местного времени необходимо прибавить поправку, которая равна -6 ч.

Смотрите также архив погоды в соседних городах и на ближайших метеорологических станциях:

Погода в Сан-Хосе аэропорту (Коста-Рика) (8 км)
Погода в Пуэрто-Лимоне (Коста-Рика) (127 км)
Погода в Либерии (Коста-Рика) (151 км)
Погода в Блуфилдсе (Никарагуа) (230 км)
Погода в Ривасе (Никарагуа) (239 км)
Погода в Давиде (Панама) (264 км)
Погода в Хуигальпе (Никарагуа) (268 км)
Погода в Манагуа (Никарагуа) (323 км)
Погода в Хинотеге (Никарагуа) (395 км)
Погода на Острове Сан-Андрес (Колумбия) (397 км)

Пояснения к столбцам:

Ветер - указаны скорость ветра в м/с - средняя за 10 мин, порывы в срок и между сроками (в фигурных скобках) и направление, откуда дует ветер: С - северный, СВ - северо-восточный, В - восточный, ЮВ - юго-восточный, Ю - южный, ЮЗ - юго-западный, З - западный, СЗ - северо-западный.
Видимость - горизонтальная дальность видимости в метрах или километрах. При видимости от 1 до 10 км при отсутствии осадков обычно наблюдается дымка, при ухудшении видимости до 1 км и менее - туман. В сухую погоду видимость может ухудшаться дымом, пылью или мглою.
Явления - указаны атмосферные явления, наблюдавшиеся в срок или в последний час перед сроком; фигурными скобками обозначены явления, наблюдавшиеся между сроками (за 1-3 часа до срока); квадратными скобками обозначены град или гололедные отложения с указанием их диаметра в мм.
Облачность - указаны через наклонную черту общая и нижняя облачность в баллах и высота нижней границы облаков в метрах; квадратными скобками обозначены формы облаков: Ci - перистые, Cs - перисто-слоистые, Cc - перисто-кучевые, Ac - высококучевые, As - высокослоистые, Sc - слоисто-кучевые, Ns - слоисто-дождевые, Cu - кучевые, Cb - кучево-дождевые. Подробнее классификацию облаков см. в Атласе облаков (PDF).
T - Температура воздуха - температура, измеренная на высоте 2 м над землей.
Td - Температура точки росы - температура, при понижении до которой содержащийся в воздухе водяной пар достигнет насыщения.
f - Относительная влажность воздуха - влажноcть воздуха, измеренная на высоте 2 м над землей.
Te - Эффективная температура - температура, которую ощущает одетый по сезону человек в тени. Характеристика душности погоды. При расчете учитывается влияние влажности воздуха и скорости ветра на теплоощущения человека.
Tes - Эффективная температура на солнце - температура, которую ощущает человек, с поправкой на солнечный нагрев. Характеристика знойности погоды. Зависит от высоты солнца над горизонтом, облачности и скорости ветра. Ночью, в пасмурную погоду, а также при ветре 12 м/с и более поправка равна нулю.
P - Атмосферное давление - приведенное к уровню моря атмосферное давление.
Po - Атмосферное давление - измеренное на уровне метеостанции атмосферное давление.
Tmin - Минимальная температура - минимум температуры воздуха на высоте 2 м над землей.
Tmax - Максимальная температура - максимум температуры воздуха на высоте 2 м над землей.
R - Количество осадков - Количество выпавших осадков за период времени, мм. При наведении курсора мыши на число - период времени, за который выпало указанное количество осадков.
R24 - Количество осадков - Количество выпавших осадков за 24 часа, мм.
S - Снежный покров - Высота снежного покрова, см. При наведении курсора мыши на число - состояние снежного покрова и степень покрытия местности в баллах.